BLF1050 UUBW-ULLI

Flight info

Callsign BLF1050
Flight time 1h 24m
Altitude 36000
Route SUNUN2B SUNUN M869 RAVKA N50 NUDKO T561 ODATI T875 GENPA GENPA1B
Aircraft B738/M-SDE2E3FGHIRWXY/LB1

Departure

Time 2026-04-30 20:35
Airport Zhukovsky International Airport (UUBW)

Arrival

Time 2026-04-30 22:00
Airport Pulkovo Airport (ULLI)
Time Latitude Longitude Altitude Speed Heading
2026-04-30 20:00 55.56290 38.12155 410 ft 0 kts 264°
2026-04-30 20:20 55.56290 38.12157 410 ft 3 kts 264°
2026-04-30 20:20 55.56296 38.12182 410 ft 4 kts 232°
2026-04-30 20:20 55.56305 38.12196 410 ft 2 kts 200°
2026-04-30 20:21 55.56317 38.12200 409 ft 2 kts 172°
2026-04-30 20:21 55.56328 38.12195 407 ft 2 kts 146°
2026-04-30 20:21 55.56336 38.12181 409 ft 2 kts 119°
2026-04-30 20:21 55.56340 38.12163 409 ft 2 kts 97°
2026-04-30 20:22 55.56341 38.12155 409 ft 0 kts 89°
2026-04-30 20:25 55.56292 38.12348 407 ft 18 kts 131°
2026-04-30 20:25 55.56205 38.12527 412 ft 18 kts 129°
2026-04-30 20:26 55.56117 38.12735 412 ft 4 kts 95°
2026-04-30 20:26 55.56015 38.12962 406 ft 18 kts 132°
2026-04-30 20:26 55.55930 38.13137 408 ft 21 kts 132°
2026-04-30 20:27 55.55773 38.13436 407 ft 19 kts 135°
2026-04-30 20:27 55.55578 38.13819 407 ft 19 kts 121°
2026-04-30 20:28 55.55388 38.14212 404 ft 21 kts 132°
2026-04-30 20:28 55.55212 38.14561 406 ft 22 kts 131°
2026-04-30 20:29 55.55012 38.14960 400 ft 24 kts 130°
2026-04-30 20:30 55.54935 38.15325 402 ft 0 kts 41°
2026-04-30 20:32 55.54970 38.15381 403 ft 11 kts 42°
2026-04-30 20:33 55.55047 38.15447 403 ft 12 kts 328°
2026-04-30 20:33 55.55072 38.15403 403 ft 2 kts 312°
2026-04-30 20:33 55.55072 38.15402 403 ft 0 kts 312°
2026-04-30 20:34 55.55078 38.15390 400 ft 6 kts 313°
2026-04-30 20:34 55.55665 38.14224 403 ft 129 kts 312°
2026-04-30 20:35 55.56385 38.12830 515 ft 171 kts 313°
2026-04-30 20:35 55.57221 38.11311 1213 ft 176 kts 315°
2026-04-30 20:35 55.58916 38.08181 2196 ft 181 kts 310°
2026-04-30 20:36 55.59445 38.06199 2073 ft 180 kts 274°
2026-04-30 20:36 55.59250 38.04069 2051 ft 177 kts 241°
2026-04-30 20:36 55.57352 38.01264 2059 ft 185 kts 203°
2026-04-30 20:37 55.56056 38.01081 2107 ft 199 kts 165°
2026-04-30 20:37 55.54923 38.02500 2109 ft 207 kts 129°
2026-04-30 20:37 55.53982 38.04460 2076 ft 210 kts 131°
2026-04-30 20:37 55.53021 38.06371 2126 ft 204 kts 131°
2026-04-30 20:38 55.52091 38.08219 2574 ft 200 kts 131°
2026-04-30 20:38 55.51158 38.10071 2885 ft 203 kts 130°
2026-04-30 20:38 55.50226 38.11938 2990 ft 205 kts 126°
2026-04-30 20:39 55.50103 38.16496 3432 ft 195 kts 62°
2026-04-30 20:39 55.50667 38.18656 3908 ft 197 kts 63°
2026-04-30 20:39 55.51478 38.20565 3912 ft 189 kts 29°
2026-04-30 20:40 55.54167 38.20337 4023 ft 227 kts 335°
2026-04-30 20:40 55.55617 38.19172 4001 ft 229 kts 336°
2026-04-30 20:40 55.57069 38.18016 4000 ft 230 kts 336°
2026-04-30 20:41 55.59953 38.15545 3980 ft 231 kts 321°
2026-04-30 20:41 55.60886 38.13266 4019 ft 233 kts 291°
2026-04-30 20:41 55.61101 38.10414 4446 ft 238 kts 268°
2026-04-30 20:41 55.60880 38.07520 5117 ft 238 kts 262°
2026-04-30 20:42 55.60587 38.04625 5716 ft 240 kts 261°
2026-04-30 20:42 55.60051 38.01856 6265 ft 246 kts 237°
2026-04-30 20:42 55.57250 37.98091 6975 ft 265 kts 211°
2026-04-30 20:43 55.55648 37.96519 6961 ft 267 kts 210°
2026-04-30 20:43 55.54190 37.94581 6978 ft 261 kts 235°
2026-04-30 20:43 55.53417 37.91728 7203 ft 258 kts 254°
2026-04-30 20:44 55.52494 37.85532 8600 ft 263 kts 257°
2026-04-30 20:44 55.52038 37.82383 8944 ft 266 kts 257°
2026-04-30 20:44 55.51086 37.76063 8989 ft 266 kts 256°
2026-04-30 20:45 55.50021 37.69789 8993 ft 268 kts 249°
2026-04-30 20:45 55.49253 37.66795 9011 ft 268 kts 246°
2026-04-30 20:45 55.48463 37.63810 8995 ft 269 kts 247°
2026-04-30 20:46 55.45983 37.54990 8978 ft 270 kts 227°
2026-04-30 20:46 55.44490 37.52937 9291 ft 274 kts 216°
2026-04-30 20:47 55.41333 37.49077 9960 ft 276 kts 216°
2026-04-30 20:47 55.39787 37.47173 9991 ft 275 kts 216°
2026-04-30 20:48 55.36640 37.43271 9997 ft 277 kts 217°
2026-04-30 20:48 55.35061 37.41306 9995 ft 278 kts 217°
2026-04-30 20:48 55.33483 37.39343 9995 ft 278 kts 217°
2026-04-30 20:48 55.32150 37.36944 9983 ft 274 kts 243°
2026-04-30 20:49 55.31578 37.33809 10194 ft 271 kts 266°
2026-04-30 20:49 55.31510 37.30490 10870 ft 273 kts 271°
2026-04-30 20:49 55.31493 37.27155 11599 ft 275 kts 271°
2026-04-30 20:50 55.31439 37.19955 12263 ft 311 kts 270°
2026-04-30 20:50 55.31395 37.16125 12878 ft 316 kts 270°
2026-04-30 20:50 55.31378 37.12248 13566 ft 319 kts 276°
2026-04-30 20:50 55.31919 37.08494 14229 ft 319 kts 293°
2026-04-30 20:51 55.32768 37.04867 14884 ft 322 kts 294°
2026-04-30 20:51 55.34506 36.97493 16138 ft 330 kts 294°
2026-04-30 20:51 55.35356 36.93778 16759 ft 333 kts 294°
2026-04-30 20:52 55.36219 36.89962 17184 ft 338 kts 293°
2026-04-30 20:52 55.37113 36.86141 17193 ft 338 kts 300°
2026-04-30 20:52 55.40563 36.80976 17334 ft 335 kts 343°
2026-04-30 20:53 55.42845 36.80264 17985 ft 332 kts 357°
2026-04-30 20:53 55.45152 36.80025 18684 ft 332 kts 359°
2026-04-30 20:53 55.47465 36.79846 19298 ft 334 kts 359°
2026-04-30 20:54 55.52148 36.79445 20451 ft 339 kts 358°
2026-04-30 20:54 55.54509 36.79212 21033 ft 341 kts 358°
2026-04-30 20:54 55.56885 36.78968 21618 ft 342 kts 358°
2026-04-30 20:55 55.61568 36.77318 22433 ft 358 kts 333°
2026-04-30 20:55 55.63704 36.74847 22542 ft 374 kts 328°
2026-04-30 20:55 55.65859 36.72123 22651 ft 387 kts 327°
2026-04-30 20:56 55.70276 36.66463 23470 ft 394 kts 327°
2026-04-30 20:56 55.72508 36.63622 23969 ft 394 kts 328°
2026-04-30 20:56 55.76223 36.58932 24680 ft 397 kts 328°
2026-04-30 20:57 55.78492 36.56077 25055 ft 400 kts 328°
2026-04-30 20:57 55.80765 36.53211 25476 ft 401 kts 328°
2026-04-30 20:57 55.83047 36.50332 25858 ft 403 kts 329°
2026-04-30 20:58 55.87658 36.44513 26572 ft 408 kts 329°
2026-04-30 20:58 55.90013 36.41687 26932 ft 409 kts 331°
2026-04-30 20:58 55.92405 36.38913 27271 ft 410 kts 331°
2026-04-30 20:58 55.94804 36.36149 27602 ft 412 kts 331°
2026-04-30 20:59 55.99637 36.30526 28210 ft 417 kts 331°
2026-04-30 20:59 56.02067 36.27671 28504 ft 419 kts 331°
2026-04-30 21:00 56.06942 36.21910 29120 ft 422 kts 331°
2026-04-30 21:00 56.11831 36.16122 29677 ft 425 kts 331°
2026-04-30 21:01 56.16050 36.08628 30339 ft 441 kts 304°
2026-04-30 21:01 56.17408 36.03667 30709 ft 444 kts 300°
2026-04-30 21:01 56.20143 35.93730 31180 ft 442 kts 309°
2026-04-30 21:02 56.22030 35.89428 31493 ft 435 kts 318°
2026-04-30 21:02 56.24228 35.85763 31802 ft 429 kts 327°
2026-04-30 21:02 56.26629 35.82588 32057 ft 428 kts 328°
2026-04-30 21:02 56.29050 35.79459 32290 ft 430 kts 328°
2026-04-30 21:03 56.31480 35.76295 32518 ft 431 kts 327°
2026-04-30 21:03 56.33895 35.73109 32785 ft 431 kts 327°
2026-04-30 21:03 56.36305 35.69892 33067 ft 430 kts 327°
2026-04-30 21:03 56.38713 35.66663 33290 ft 431 kts 327°
2026-04-30 21:04 56.41124 35.63427 33498 ft 433 kts 327°
2026-04-30 21:04 56.43538 35.60185 33774 ft 432 kts 327°
2026-04-30 21:04 56.48368 35.53679 34201 ft 434 kts 326°
2026-04-30 21:05 56.50787 35.50412 34484 ft 432 kts 326°
2026-04-30 21:05 56.53192 35.47158 34744 ft 432 kts 326°
2026-04-30 21:05 56.55598 35.43900 34951 ft 432 kts 326°
2026-04-30 21:05 56.58006 35.40633 35120 ft 433 kts 326°
2026-04-30 21:06 56.60412 35.37343 35318 ft 433 kts 326°
2026-04-30 21:06 56.62780 35.34081 35541 ft 432 kts 326°
2026-04-30 21:06 56.65202 35.30732 35819 ft 430 kts 326°
2026-04-30 21:06 56.67577 35.27440 36061 ft 429 kts 326°
2026-04-30 21:07 56.69924 35.24185 36183 ft 431 kts 326°
2026-04-30 21:07 56.72315 35.20869 36199 ft 434 kts 326°
2026-04-30 21:07 56.77114 35.14193 36188 ft 433 kts 326°
2026-04-30 21:08 56.81890 35.07523 36191 ft 430 kts 326°
2026-04-30 21:08 56.86626 35.00890 36186 ft 428 kts 326°
2026-04-30 21:09 56.91343 34.94299 36195 ft 425 kts 328°
2026-04-30 21:09 56.96238 34.88271 36194 ft 423 kts 330°
2026-04-30 21:10 57.01194 34.82465 36196 ft 423 kts 330°
2026-04-30 21:10 57.06141 34.76613 36199 ft 423 kts 330°
2026-04-30 21:11 57.11079 34.70697 36190 ft 424 kts 330°
2026-04-30 21:11 57.16016 34.64737 36197 ft 425 kts 330°
2026-04-30 21:12 57.20926 34.58787 36195 ft 425 kts 330°
2026-04-30 21:12 57.25865 34.52785 36198 ft 425 kts 330°
2026-04-30 21:13 57.30811 34.46755 36188 ft 426 kts 330°
2026-04-30 21:13 57.35760 34.40704 36182 ft 426 kts 330°
2026-04-30 21:14 57.40701 34.34638 36183 ft 426 kts 330°
2026-04-30 21:14 57.45639 34.28554 36182 ft 426 kts 330°
2026-04-30 21:15 57.50566 34.22467 36181 ft 424 kts 330°
2026-04-30 21:15 57.55457 34.16407 36178 ft 420 kts 330°
2026-04-30 21:16 57.60298 34.10385 36181 ft 417 kts 330°
2026-04-30 21:16 57.65121 34.04366 36200 ft 418 kts 330°
2026-04-30 21:17 57.69979 33.98292 36199 ft 422 kts 330°
2026-04-30 21:17 57.74860 33.92158 36197 ft 423 kts 330°
2026-04-30 21:18 57.79748 33.85996 36195 ft 423 kts 330°
2026-04-30 21:18 57.84627 33.79825 36188 ft 421 kts 330°
2026-04-30 21:19 57.89297 33.73533 36188 ft 409 kts 326°
2026-04-30 21:19 57.93718 33.66790 36137 ft 409 kts 325°
2026-04-30 21:20 57.95929 33.63381 35801 ft 409 kts 325°
2026-04-30 21:20 57.98118 33.60009 35411 ft 405 kts 326°
2026-04-30 21:20 58.00289 33.56676 35049 ft 400 kts 326°
2026-04-30 21:20 58.02439 33.53382 34642 ft 397 kts 326°
2026-04-30 21:21 58.04544 33.50159 34249 ft 393 kts 327°
2026-04-30 21:21 58.06658 33.46920 33856 ft 389 kts 327°
2026-04-30 21:21 58.10827 33.40518 33078 ft 382 kts 327°
2026-04-30 21:22 58.12883 33.37352 32691 ft 379 kts 327°
2026-04-30 21:22 58.18909 33.28051 31625 ft 367 kts 327°
2026-04-30 21:23 58.20865 33.25022 31388 ft 360 kts 328°
2026-04-30 21:23 58.22787 33.22041 31126 ft 354 kts 328°
2026-04-30 21:23 58.26535 33.16220 30553 ft 344 kts 328°
2026-04-30 21:24 58.28378 33.13356 30207 ft 341 kts 328°
2026-04-30 21:24 58.30205 33.10513 29861 ft 338 kts 328°
2026-04-30 21:24 58.32018 33.07686 29506 ft 335 kts 328°
2026-04-30 21:24 58.33814 33.04880 29141 ft 332 kts 328°
2026-04-30 21:25 58.37354 32.99339 28434 ft 327 kts 328°
2026-04-30 21:25 58.39080 32.96632 28083 ft 324 kts 328°
2026-04-30 21:25 58.40811 32.93914 27727 ft 321 kts 328°
2026-04-30 21:26 58.44234 32.88529 27049 ft 316 kts 328°
2026-04-30 21:26 58.45917 32.85870 26749 ft 312 kts 328°
2026-04-30 21:27 58.49238 32.80630 26076 ft 307 kts 328°
2026-04-30 21:27 58.50875 32.78038 25742 ft 304 kts 328°
2026-04-30 21:27 58.52501 32.75463 25416 ft 302 kts 328°
2026-04-30 21:28 58.55704 32.70377 24768 ft 297 kts 328°
2026-04-30 21:28 58.57285 32.67864 24445 ft 294 kts 328°
2026-04-30 21:28 58.60408 32.62886 23814 ft 289 kts 328°
2026-04-30 21:29 58.61950 32.60425 23486 ft 287 kts 328°
2026-04-30 21:29 58.66533 32.53096 22577 ft 287 kts 328°
2026-04-30 21:30 58.69666 32.48079 21956 ft 300 kts 327°
2026-04-30 21:31 58.74430 32.40398 20959 ft 294 kts 327°
2026-04-30 21:31 58.77543 32.35372 20294 ft 290 kts 327°
2026-04-30 21:32 58.80620 32.30394 19645 ft 286 kts 327°
2026-04-30 21:32 58.82140 32.27929 19324 ft 284 kts 327°
2026-04-30 21:32 58.83647 32.25484 19022 ft 282 kts 327°
2026-04-30 21:32 58.85140 32.23057 18716 ft 279 kts 326°
2026-04-30 21:33 58.86619 32.20650 18418 ft 277 kts 326°
2026-04-30 21:33 58.89541 32.15883 17823 ft 273 kts 326°
2026-04-30 21:33 58.90988 32.13519 17529 ft 271 kts 326°
2026-04-30 21:34 58.92424 32.11172 17235 ft 269 kts 326°
2026-04-30 21:34 58.95263 32.06524 16657 ft 265 kts 326°
2026-04-30 21:34 58.96665 32.04223 16365 ft 263 kts 326°
2026-04-30 21:35 58.98058 32.01936 16077 ft 262 kts 326°
2026-04-30 21:35 58.99428 31.99683 15792 ft 260 kts 326°
2026-04-30 21:35 59.00803 31.97419 15510 ft 258 kts 326°
2026-04-30 21:35 59.02168 31.95169 15232 ft 256 kts 326°
2026-04-30 21:36 59.03527 31.92928 14953 ft 257 kts 326°
2026-04-30 21:36 59.04895 31.90671 14675 ft 259 kts 326°
2026-04-30 21:37 59.09157 31.83626 13785 ft 272 kts 325°
2026-04-30 21:37 59.10591 31.81240 13479 ft 271 kts 324°
2026-04-30 21:37 59.11975 31.78735 13120 ft 272 kts 321°
2026-04-30 21:37 59.13332 31.76158 12810 ft 271 kts 321°
2026-04-30 21:38 59.14674 31.73589 12503 ft 270 kts 321°
2026-04-30 21:38 59.16011 31.71031 12206 ft 268 kts 321°
2026-04-30 21:38 59.17341 31.68493 11913 ft 267 kts 321°
2026-04-30 21:38 59.18664 31.65974 11614 ft 265 kts 320°
2026-04-30 21:39 59.19982 31.63463 11317 ft 264 kts 320°
2026-04-30 21:39 59.21277 31.60996 11030 ft 263 kts 320°
2026-04-30 21:39 59.22581 31.58510 10736 ft 262 kts 320°
2026-04-30 21:39 59.23880 31.56032 10450 ft 260 kts 319°
2026-04-30 21:40 59.25161 31.53586 10326 ft 255 kts 319°
2026-04-30 21:40 59.26424 31.51173 10198 ft 254 kts 319°
2026-04-30 21:40 59.27703 31.48728 9877 ft 261 kts 319°
2026-04-30 21:40 59.29005 31.46236 9592 ft 262 kts 318°
2026-04-30 21:41 59.30307 31.43737 9301 ft 261 kts 318°
2026-04-30 21:41 59.31602 31.41249 9018 ft 260 kts 317°
2026-04-30 21:41 59.32892 31.38764 8725 ft 260 kts 317°
2026-04-30 21:41 59.34177 31.36288 8446 ft 258 kts 317°
2026-04-30 21:42 59.35022 31.34659 8265 ft 257 kts 317°
2026-04-30 21:42 59.36294 31.32202 7986 ft 256 kts 317°
2026-04-30 21:42 59.37561 31.29755 7715 ft 255 kts 317°
2026-04-30 21:42 59.39242 31.26545 7350 ft 254 kts 317°
2026-04-30 21:43 59.40497 31.24104 7075 ft 253 kts 317°
2026-04-30 21:43 59.41341 31.22457 6891 ft 252 kts 317°
2026-04-30 21:43 59.42580 31.20039 6619 ft 251 kts 317°
2026-04-30 21:43 59.43805 31.17655 6346 ft 250 kts 317°
2026-04-30 21:44 59.45038 31.15253 6078 ft 249 kts 317°
2026-04-30 21:44 59.46265 31.12865 5810 ft 247 kts 317°
2026-04-30 21:44 59.47485 31.10487 5554 ft 246 kts 316°
2026-04-30 21:44 59.48677 31.08158 5444 ft 238 kts 316°
2026-04-30 21:45 59.49854 31.05859 5339 ft 239 kts 316°
2026-04-30 21:45 59.51065 31.03586 5225 ft 240 kts 325°
2026-04-30 21:45 59.52600 31.02371 5204 ft 240 kts 352°
2026-04-30 21:46 59.56294 31.02430 5188 ft 243 kts
2026-04-30 21:46 59.57985 31.02572 5176 ft 243 kts
2026-04-30 21:46 59.59645 31.03105 5176 ft 244 kts 21°
2026-04-30 21:46 59.61158 31.04654 5190 ft 246 kts 27°
2026-04-30 21:47 59.62670 31.06271 5182 ft 247 kts 27°
2026-04-30 21:47 59.64185 31.07875 5178 ft 247 kts 27°
2026-04-30 21:47 59.65691 31.09466 5180 ft 245 kts 26°
2026-04-30 21:47 59.67213 31.10959 5170 ft 244 kts 16°
2026-04-30 21:48 59.68882 31.11461 5195 ft 243 kts
2026-04-30 21:48 59.70571 31.11763 5184 ft 244 kts
2026-04-30 21:48 59.72260 31.12098 5183 ft 243 kts
2026-04-30 21:48 59.73921 31.12437 5183 ft 243 kts
2026-04-30 21:49 59.75626 31.12772 5177 ft 243 kts
2026-04-30 21:49 59.77250 31.12378 5185 ft 234 kts 343°
2026-04-30 21:49 59.78778 31.11447 5167 ft 225 kts 343°
2026-04-30 21:49 59.80266 31.10555 5176 ft 222 kts 343°
2026-04-30 21:50 59.81578 31.09045 5181 ft 220 kts 314°
2026-04-30 21:50 59.82324 31.06385 5180 ft 227 kts 285°
2026-04-30 21:50 59.82297 31.03221 5051 ft 237 kts 253°
2026-04-30 21:50 59.81457 31.00389 4957 ft 241 kts 233°
2026-04-30 21:51 59.80355 30.97867 4829 ft 242 kts 230°
2026-04-30 21:51 59.79222 30.95429 4675 ft 238 kts 230°
2026-04-30 21:51 59.78105 30.93030 4550 ft 234 kts 230°
2026-04-30 21:51 59.77006 30.90647 4439 ft 234 kts 230°
2026-04-30 21:52 59.75908 30.88257 4310 ft 233 kts 230°
2026-04-30 21:52 59.74810 30.85856 4084 ft 238 kts 230°
2026-04-30 21:52 59.73702 30.83419 3912 ft 236 kts 230°
2026-04-30 21:52 59.72612 30.81024 3781 ft 231 kts 230°
2026-04-30 21:53 59.71542 30.78670 3644 ft 229 kts 230°
2026-04-30 21:53 59.70485 30.76345 3532 ft 230 kts 230°
2026-04-30 21:53 59.69409 30.73983 3414 ft 231 kts 230°
2026-04-30 21:53 59.68386 30.71552 3276 ft 229 kts 243°
2026-04-30 21:54 59.68032 30.68572 3162 ft 222 kts 278°
2026-04-30 21:54 59.68542 30.65755 3063 ft 219 kts 307°
2026-04-30 21:54 59.69623 30.63649 2969 ft 218 kts 324°
2026-04-30 21:54 59.70842 30.61947 2867 ft 210 kts 326°
2026-04-30 21:55 59.72016 30.60353 2733 ft 199 kts 326°
2026-04-30 21:55 59.73138 30.58821 2606 ft 194 kts 326°
2026-04-30 21:55 59.74220 30.57230 2513 ft 195 kts 314°
2026-04-30 21:55 59.74859 30.54892 2524 ft 192 kts 291°
2026-04-30 21:56 59.75366 30.52481 2492 ft 185 kts 294°
2026-04-30 21:56 59.75809 30.50119 2312 ft 179 kts 289°
2026-04-30 21:56 59.76161 30.47840 2083 ft 172 kts 287°
2026-04-30 21:56 59.76489 30.45610 1856 ft 164 kts 287°
2026-04-30 21:57 59.76795 30.43515 1662 ft 152 kts 287°
2026-04-30 21:57 59.77085 30.41533 1481 ft 147 kts 287°
2026-04-30 21:57 59.77377 30.39550 1259 ft 149 kts 286°
2026-04-30 21:57 59.77665 30.37577 1072 ft 150 kts 286°
2026-04-30 21:58 59.77961 30.35567 870 ft 152 kts 287°
2026-04-30 21:58 59.78256 30.33562 666 ft 151 kts 286°
2026-04-30 21:58 59.78546 30.31595 469 ft 150 kts 286°
2026-04-30 21:58 59.78841 30.29597 282 ft 153 kts 286°
2026-04-30 21:59 59.79140 30.27545 101 ft 153 kts 287°
2026-04-30 21:59 59.79425 30.25661 87 ft 128 kts 287°
2026-04-30 21:59 59.79630 30.24257 81 ft 84 kts 287°
2026-04-30 22:00 59.79891 30.23081 79 ft 20 kts 315°
2026-04-30 22:00 59.79972 30.23100 78 ft 0 kts 84°
2026-04-30 22:00 59.79972 30.23101 78 ft 1 kts 84°
2026-04-30 22:01 59.79964 30.23208 69 ft 14 kts 106°
2026-04-30 22:01 59.79932 30.23418 73 ft 17 kts 107°
2026-04-30 22:01 59.79896 30.23663 74 ft 17 kts 108°
2026-04-30 22:01 59.79860 30.23909 79 ft 19 kts 106°
2026-04-30 22:02 59.79835 30.24077 79 ft 17 kts 106°
2026-04-30 22:02 59.79799 30.24320 82 ft 20 kts 107°
2026-04-30 22:02 59.79751 30.24648 85 ft 19 kts 107°
2026-04-30 22:02 59.79718 30.24868 81 ft 16 kts 106°
2026-04-30 22:03 59.79695 30.25017 85 ft 17 kts 107°
2026-04-30 22:03 59.79660 30.25254 81 ft 18 kts 105°
2026-04-30 22:03 59.79626 30.25490 81 ft 16 kts 105°
2026-04-30 22:03 59.79591 30.25726 82 ft 19 kts 107°
2026-04-30 22:04 59.79558 30.25951 82 ft 12 kts 107°
2026-04-30 22:04 59.79531 30.26129 82 ft 15 kts 107°
2026-04-30 22:04 59.79546 30.26377 81 ft 13 kts 17°
2026-04-30 22:05 59.79639 30.26433 80 ft 13 kts 17°
2026-04-30 22:05 59.79727 30.26485 80 ft 8 kts 18°
2026-04-30 22:05 59.79776 30.26532 80 ft 8 kts 57°
2026-04-30 22:05 59.79779 30.26662 80 ft 10 kts 94°
2026-04-30 22:06 59.79778 30.26678 80 ft 1 kts 94°
2026-04-30 22:06 59.79778 30.26685 80 ft 0 kts 95°